When you browse on this site, cookies collect data to enhance your experience and personalize the content and advertising you see.
Visit our Privacy Policy to learn more. By continuing to use the site, you agree to this use of cookies and data.
  • In Romania
  • List of Countries
  • For 7 days
  • Water Temperature
  • Weather Map
  • Weather Widgets
  • user-avatar
    Login

    Hourly Weather Amman

    Today, 31 March, Tuesday

    Time Temperature Precipitation Wind Pressure Humidity
    00:00 +15°C° 0 mm 1 mps 689 mmHg 46%
    01:00 +15°C° 0 mm 2 mps 688 mmHg 45%
    02:00 +15°C° 0 mm 2 mps 688 mmHg 45%
    03:00 +14°C° 0 mm 4 mps 688 mmHg 46%
    04:00 +14°C° 0 mm 5 mps 688 mmHg 46%
    05:00 +13°C° 0 mm 6 mps 688 mmHg 46%
    06:00 +15°C° 0 mm 7 mps 688 mmHg 43%
    07:00 +16°C° 0 mm 8 mps 688 mmHg 40%
    08:00 +17°C° 0 mm 8 mps 688 mmHg 36%
    09:00 +20°C° 0 mm 7 mps 688 mmHg 32%
    10:00 +22°C° 0 mm 7 mps 689 mmHg 27%
    11:00 +23°C° 0 mm 6 mps 689 mmHg 23%
    12:00 +24°C° 0 mm 7 mps 688 mmHg 22%
    13:00 +24°C° 0 mm 7 mps 687 mmHg 21%
    14:00 +26°C° 0 mm 8 mps 687 mmHg 20%
    15:00 +24°C° 0 mm 6 mps 686 mmHg 25%
    16:00 +23°C° 0 mm 4 mps 686 mmHg 29%
    17:00 +22°C° 0 mm 3 mps 686 mmHg 33%
    18:00 +20°C° 0 mm 3 mps 686 mmHg 36%
    19:00 +19°C° 0 mm 3 mps 686 mmHg 39%
    20:00 +17°C° 0 mm 3 mps 686 mmHg 42%
    21:00 +16°C° 0 mm 3 mps 687 mmHg 50%
    22:00 +14°C° 0 mm 3 mps 687 mmHg 58%
    23:00 +13°C° 0 mm 3 mps 687 mmHg 66%

    Tomorrow, 1 April, Wednesday

    Time Temperature Precipitation Wind Pressure Humidity
    00:00 +12°C° 0 mm 3 mps 687 mmHg 67%
    01:00 +12°C° 0 mm 3 mps 687 mmHg 67%
    02:00 +11°C° 0 mm 3 mps 686 mmHg 68%
    03:00 +11°C° 0 mm 4 mps 686 mmHg 71%
    04:00 +10°C° 0 mm 5 mps 687 mmHg 75%
    05:00 +9°C° 0 mm 5 mps 687 mmHg 78%
    06:00 +10°C° 0 mm 7 mps 687 mmHg 77%
    07:00 +10°C° 0 mm 8 mps 687 mmHg 76%
    08:00 +11°C° 0 mm 9 mps 687 mmHg 75%
    09:00 +11°C° 0 mm 9 mps 687 mmHg 73%
    10:00 +12°C° 0 mm 9 mps 688 mmHg 71%
    11:00 +12°C° 0 mm 9 mps 688 mmHg 68%
    12:00 +13°C° 0 mm 9 mps 688 mmHg 68%
    13:00 +13°C° 0 mm 10 mps 688 mmHg 69%
    14:00 +13°C° 0 mm 10 mps 688 mmHg 69%
    15:00 +13°C° 0.1 mm 9 mps 688 mmHg 71%
    16:00 +12°C° 0.1 mm 8 mps 688 mmHg 74%
    17:00 +12°C° 0.1 mm 7 mps 688 mmHg 76%
    18:00 +11°C° 0.1 mm 6 mps 688 mmHg 80%
    19:00 +10°C° 0.1 mm 5 mps 689 mmHg 84%
    20:00 +10°C° 0.1 mm 4 mps 689 mmHg 88%
    21:00 +10°C° 0 mm 3 mps 689 mmHg 89%
    22:00 +10°C° 0 mm 3 mps 689 mmHg 90%
    23:00 +9°C° 0 mm 2 mps 689 mmHg 91%

    Day after tomorrow, 2 April, Thursday

    Time Temperature Precipitation Wind Pressure Humidity
    00:00 +9°C° 0 mm 2 mps 689 mmHg 92%
    01:00 +9°C° 0 mm 3 mps 688 mmHg 92%
    02:00 +9°C° 0 mm 3 mps 688 mmHg 93%
    03:00 +8°C° 0 mm 3 mps 688 mmHg 93%
    04:00 +8°C° 0 mm 3 mps 689 mmHg 93%
    05:00 +8°C° 0 mm 3 mps 689 mmHg 93%
    06:00 +9°C° 0 mm 3 mps 689 mmHg 89%
    07:00 +10°C° 0 mm 3 mps 690 mmHg 84%
    08:00 +11°C° 0 mm 4 mps 690 mmHg 79%
    09:00 +12°C° 0 mm 3 mps 690 mmHg 70%
    10:00 +13°C° 0 mm 3 mps 690 mmHg 61%
    11:00 +14°C° 0 mm 3 mps 691 mmHg 51%
    12:00 +16°C° 0 mm 3 mps 690 mmHg 48%
    13:00 +15°C° 0 mm 4 mps 690 mmHg 45%
    14:00 +17°C° 0 mm 4 mps 690 mmHg 42%
    15:00 +17°C° 0 mm 4 mps 690 mmHg 46%
    16:00 +15°C° 0 mm 4 mps 690 mmHg 49%
    17:00 +15°C° 0 mm 4 mps 690 mmHg 52%
    18:00 +14°C° 0 mm 4 mps 690 mmHg 56%
    19:00 +13°C° 0 mm 3 mps 690 mmHg 59%
    20:00 +12°C° 0 mm 2 mps 690 mmHg 63%
    21:00 +12°C° 0 mm 2 mps 690 mmHg 60%
    22:00 +12°C° 0 mm 1 mps 690 mmHg 58%
    23:00 +11°C° 0 mm 1 mps 690 mmHg 56%

    3 April, Friday

    Time Temperature Precipitation Wind Pressure Humidity
    00:00 +11°C° 0 mm 1 mps 690 mmHg 55%
    01:00 +10°C° 0 mm 1 mps 690 mmHg 54%
    02:00 +10°C° 0 mm 1 mps 690 mmHg 53%
    03:00 +10°C° 0 mm 1 mps 690 mmHg 52%
    04:00 +10°C° 0 mm 1 mps 690 mmHg 51%
    05:00 +9°C° 0 mm 1 mps 690 mmHg 51%
    06:00 +11°C° 0 mm 1 mps 690 mmHg 46%
    07:00 +13°C° 0 mm 2 mps 691 mmHg 42%
    08:00 +14°C° 0 mm 2 mps 691 mmHg 38%
    09:00 +15°C° 0 mm 2 mps 692 mmHg 37%
    10:00 +17°C° 0 mm 2 mps 692 mmHg 35%
    11:00 +18°C° 0 mm 2 mps 692 mmHg 34%
    12:00 +19°C° 0 mm 3 mps 692 mmHg 33%
    13:00 +20°C° 0 mm 3 mps 692 mmHg 32%
    14:00 +20°C° 0 mm 4 mps 692 mmHg 31%
    15:00 +20°C° 0 mm 4 mps 691 mmHg 34%
    16:00 +19°C° 0 mm 4 mps 691 mmHg 37%
    17:00 +19°C° 0 mm 4 mps 691 mmHg 40%
    18:00 +17°C° 0 mm 3 mps 691 mmHg 45%
    19:00 +16°C° 0 mm 2 mps 692 mmHg 49%
    20:00 +15°C° 0 mm 2 mps 692 mmHg 53%
    21:00 +15°C° 0 mm 2 mps 692 mmHg 53%
    22:00 +14°C° 0 mm 2 mps 692 mmHg 53%
    23:00 +14°C° 0 mm 2 mps 692 mmHg 52%

    4 April, Saturday

    Time Temperature Precipitation Wind Pressure Humidity
    00:00 +14°C° 0 mm 2 mps 692 mmHg 52%
    01:00 +13°C° 0 mm 2 mps 691 mmHg 53%
    02:00 +13°C° 0 mm 2 mps 691 mmHg 53%
    03:00 +13°C° 0 mm 2 mps 691 mmHg 54%
    04:00 +13°C° 0 mm 2 mps 691 mmHg 54%
    05:00 +12°C° 0 mm 2 mps 691 mmHg 55%
    06:00 +14°C° 0 mm 2 mps 691 mmHg 50%
    07:00 +16°C° 0 mm 3 mps 692 mmHg 45%
    08:00 +17°C° 0 mm 3 mps 693 mmHg 40%
    09:00 +19°C° 0 mm 4 mps 693 mmHg 36%
    10:00 +21°C° 0 mm 5 mps 693 mmHg 32%
    11:00 +23°C° 0 mm 5 mps 693 mmHg 27%
    12:00 +25°C° 0 mm 5 mps 693 mmHg 25%
    13:00 +26°C° 0 mm 4 mps 692 mmHg 22%
    14:00 +27°C° 0 mm 4 mps 692 mmHg 20%
    15:00 +27°C° 0 mm 3 mps 692 mmHg 24%
    16:00 +26°C° 0 mm 2 mps 691 mmHg 27%
    17:00 +25°C° 0 mm 1 mps 691 mmHg 31%
    18:00 +24°C° 0 mm 2 mps 691 mmHg 32%
    19:00 +23°C° 0 mm 2 mps 691 mmHg 34%
    20:00 +20°C° 0 mm 2 mps 691 mmHg 35%
    21:00 +20°C° 0 mm 2 mps 691 mmHg 34%
    22:00 +20°C° 0 mm 3 mps 691 mmHg 32%
    23:00 +20°C° 0 mm 4 mps 691 mmHg 31%

    5 April, Sunday

    Time Temperature Precipitation Wind Pressure Humidity
    00:00 +19°C° 0 mm 4 mps 691 mmHg 31%
    01:00 +19°C° 0 mm 4 mps 691 mmHg 32%
    02:00 +18°C° 0 mm 4 mps 690 mmHg 32%
    03:00 +17°C° 0 mm 5 mps 690 mmHg 32%
    04:00 +17°C° 0 mm 5 mps 690 mmHg 33%
    05:00 +16°C° 0 mm 5 mps 690 mmHg 33%
    06:00 +19°C° 0 mm 6 mps 690 mmHg 31%
    07:00 +20°C° 0 mm 7 mps 691 mmHg 29%
    08:00 +21°C° 0 mm 8 mps 691 mmHg 27%
    09:00 +23°C° 0 mm 9 mps 691 mmHg 24%
    10:00 +27°C° 0 mm 9 mps 691 mmHg 21%
    11:00 +29°C° 0 mm 10 mps 692 mmHg 18%
    12:00 +31°C° 0 mm 9 mps 691 mmHg 17%
    13:00 +32°C° 0 mm 9 mps 691 mmHg 15%
    14:00 +33°C° 0 mm 8 mps 690 mmHg 14%
    15:00 +32°C° 0 mm 7 mps 690 mmHg 16%
    16:00 +30°C° 0 mm 5 mps 689 mmHg 19%
    17:00 +29°C° 0 mm 4 mps 689 mmHg 21%
    18:00 +28°C° 0 mm 4 mps 688 mmHg 21%
    19:00 +27°C° 0 mm 5 mps 688 mmHg 21%
    20:00 +26°C° 0 mm 6 mps 688 mmHg 21%
    21:00 +25°C° 0 mm 5 mps 688 mmHg 21%
    22:00 +25°C° 0 mm 5 mps 688 mmHg 22%
    23:00 +25°C° 0 mm 5 mps 688 mmHg 22%
    Show more